Flag for Niger Weather past 2 weeks in Niamey, Niger

Now
77 °F

Clear.


Feels Like: 76 °F
Forecast: 70 / 101 °F
Wind: 2 mph from North

Location: Niamey-Aero

Current Time: Mar 7, 2015 at 2:48:57 AM

Latest Report: Mar 7, 2015 at 2:00 AM


Visibility: 4 mi

Pressure: 29.86 "Hg

Humidity: 14%

Dew point: 25 °F

Location of NiameyLocation

Historic Weather in Niamey — Graph

°F

Niamey temperature yesterday

Maximum temperature yesterday: 99 °F (at 4:00 PM)
Minimum temperature yesterday: 75 °F (at 5:00 AM)
Average temperature yesterday: 86 °F

Past Weeks' High & Low Weather Summary

 TemperatureHumidityPressure
High99 °F (Mar 6, 4:00 PM)73% (Feb 21, 9:00 AM)30.04 "Hg (Feb 21, 9:00 AM)
Low66 °F (Feb 23, 8:00 AM)4% (Feb 27, 5:00 PM)29.68 "Hg (Feb 20, 4:00 PM)
Average82 °F15%29.90 "Hg
* Reported Feb 20 1:00 AM — Mar 7 1:00 AM, Niamey, Weather by CustomWeather, © 2015

Note: Actual official high and low records may vary slightly from our data, if they occured in-between our weather recording intervals... More about our weather records

Advertising

Niamey weather history for previous 24 hours

 ConditionsComfort  
Time TempWeatherWind HumidityBarometerVisibility
1:00 AM
Sat, Mar 7
77 °FClear.6 mph15%29.86 "Hg4 mi
12:00 AM81 °FClear.5 mph13%29.89 "Hg4 mi
11:00 PM
Fri, Mar 6
82 °FClear.5 mph12%29.89 "Hg4 mi
10:00 PM84 °FClear.3 mph12%29.89 "Hg4 mi
9:00 PM86 °FDuststorm.6 mph10%29.86 "Hg3 mi
8:00 PM90 °FDuststorm.5 mph9%29.86 "Hg3 mi
7:00 PM93 °FClear.6 mph8%29.83 "Hg4 mi
6:00 PM97 °FClear.7 mph7%29.83 "Hg4 mi
5:00 PM99 °FClear.9 mph7%29.83 "Hg4 mi
4:00 PM99 °FDuststorm.6 mph7%29.83 "Hg3 mi
3:00 PM97 °FDuststorm.5 mph8%29.86 "Hg2 mi
2:00 PM97 °FDuststorm.6 mph7%29.89 "Hg2 mi
1:00 PM93 °FDuststorm.9 mph10%29.92 "Hg2 mi
12:00 PM91 °FDuststorm.13 mph10%29.95 "Hg2 mi
11:00 AM90 °FLow level haze.16 mph10%29.98 "Hg2 mi
10:00 AM86 °FDuststorm.20 mph10%29.95 "Hg2 mi
9:00 AM81 °FDuststorm.14 mph12%29.95 "Hg2 mi
8:00 AM77 °FDuststorm.12 mph15%29.92 "Hg1 mi
7:00 AM77 °FDuststorm.10 mph15%29.89 "Hg1 mi
6:00 AM77 °FDuststorm.9 mph17%29.89 "Hg1 mi
5:00 AM75 °FDuststorm.5 mph19%29.86 "Hg1 mi
4:00 AM77 °FDuststorm.6 mph17%29.86 "Hg1 mi
3:00 AM79 °FDuststorm.6 mph17%29.86 "Hg1 mi
2:00 AM79 °FDuststorm.6 mph16%29.89 "Hg1 mi
Weather by CustomWeather, © 2015

See weather overviewHow to use our weather pages